Location: Unspecified
(0.0000°N, 0.0000°E)
Time: 15:59:24
(UTC+00:00)

deb Briz - Pass Details

Date: 16 February 2026
Orbit: 1598 x 2046 km, 64.9° (Epoch: 8 March)

Event Time Altitude Azimuth Distance (km) Brightness Sun altitude
Rises 19:06:34 0° 298° (WNW) 5,167 ? -12.8°
Reaches altitude 10° 19:11:41 10° 278° (W) 4,263 ? -14.1°
Maximum altitude 19:17:26 16° 245° (WSW) 3,909 ? -15.5°
Drops below altitude 10° 19:23:26 10° 213° (SSW) 4,432 ? -17.0°
Sets 19:29:06 0° 192° (SSW) 5,483 ? -18.3°
